Location: Alphen
(52.1351°N, 4.6549°E)
Time: 00:18:14
(UTC+00:00)

Cosmos 1689 Rocket - Pass Details

Date: 27 January 2021
Orbit: 353 x 367 km, 97.5° (Epoch: 27 February)

Event Time Altitude Azimuth Distance (km) Brightness Sun altitude
Rises 06:03:56 0° 198° (SSW) 2,212 5.9 -13.0°
Reaches altitude 10° 06:06:14 10° 217° (SW) 1,366 4.6 -12.6°
Enters shadow 06:07:46 18° 248° (WSW) 1,007 3.7 -12.4°
